Location: *
(47.7167°N, 1.7333°W)
Time: 17:50:35
(UTC+00:00)

STARLINK-1230 - Pass Details

Date: 09 April 2020
Orbit: 549 x 551 km, 53.0° (Epoch: 04 June)

Event Time Altitude Azimuth Distance (km) Brightness Sun altitude
Rises 19:11:39 0° 291° (WNW) 2,783 10.2 -4.5°
Reaches altitude 10° 19:13:59 10° 298° (WNW) 1,884 8.1 -4.9°
Maximum altitude 19:18:08 46° 12° (NNE) 779 4.5 -5.6°
Drops below altitude 10° 19:22:16 10° 86° (E) 1,878 5.8 -6.2°
Enters shadow 19:23:01 - 89° (E) 2,168 6.1 -6.4°
